Retour au catalogue

KUIPER-00180

ActifCommunicationsLEO
NORAD 67768·PAYLOAD·🇺🇸 United States

Lancé Feb 12, 2026 depuis Guiana Space Centre

Loading…

Prochains Passages (prochaines 24 heures)

TLE

FraisSource: CelesTrak SupGP

Époque: Sep 14, 2026, 20:10 UTC

1 67768C 26030E   26257.84062500  .00004487  00000+0  58746-3 0  2574
2 67768  51.8971  91.6756 0000794 113.3798  58.9206 14.79922706    11

Suivez KUIPER-00180 en temps réel avec AllMySat

Download on the App Store